METAR historie Noord Nederlandse Zweefvliegclub (NL-0036)

20 mei 2022

Tijd Code Weer Temp. Zicht Wolken Wind METAR/SPECI
18:55
I
13 °C 4,8 km 1.200 ft 300°   300° 12 kt METAR EHGG 201655Z AUTO 30012KT 270V330 4800 -RA FEW006 BKN012 OVC046 13/12 Q1012 RERA TEMPO BKN012 BECMG 9999
18:25
M
13 °C 5 km 1.500 ft 330°   330° 8 kt METAR EHGG 201625Z AUTO 33008KT 290V010 5000 RA BKN015CB 13/13 Q1012 TEMPO 4000 BKN012 BECMG 9999 -RA
17:55
M
14 °C 5 km 1.500 ft 320°   320° 10 kt METAR EHGG 201555Z AUTO 32010KT 270V350 5000 RA BKN015CB BKN034 OVC041 14/13 Q1012 TEMPO 4000 BKN012 BECMG 9999 -RA
17:25
I
15 °C 4,9 km 3.600 ft 280°   280° 7 kt METAR EHGG 201525Z AUTO 28007KT 4900 +RA FEW015CB BKN036 OVC043 15/13 Q1013 TEMPO 5000 RA
16:55
M
15 °C 5 km - 010°   010° 3 kt METAR EHGG 201455Z AUTO 01003KT 330V030 5000 RA FEW015CB 15/12 Q1013 TEMPO 8000
16:25
M
17 °C 6 km - 110°   110° 1 kt METAR EHGG 201425Z AUTO 11001KT 6000 SHRA SCT024CB 17/11 Q1013 BECMG 7000 RA
15:55
V
18 °C 10 km+ - 100°   100° 7 kt METAR EHGG 201355Z AUTO 10007KT 050V140 9999 NSC 18/09 Q1013 BECMG 7000 RA
15:25
V
18 °C 10 km+ - 100°   100° 7 kt METAR EHGG 201325Z AUTO 10007KT 050V150 9999 NSC 18/08 Q1014 BECMG 7000 RA
14:55
V
19 °C 10 km+ - 090°   090° 8 kt METAR EHGG 201255Z AUTO 09008KT 050V130 9999 NSC 19/09 Q1015 NOSIG
14:25
V
18 °C 10 km+ - 090°   090° 7 kt METAR EHGG 201225Z AUTO 09007KT 050V130 9999 NSC 18/09 Q1015 NOSIG
13:55
V
18 °C 10 km+ - 110°   110° 5 kt METAR EHGG 201155Z AUTO 11005KT 030V180 9999 NSC 18/10 Q1016 NOSIG
13:25
V
18 °C 10 km+ - 110°   110° 6 kt METAR EHGG 201125Z AUTO 11006KT 050V180 9999 NSC 18/11 Q1017 NOSIG
12:55
V
17 °C 10 km+ - 130°   130° 5 kt METAR EHGG 201055Z AUTO 13005KT 080V190 9999 NSC 17/10 Q1018 NOSIG
12:25
V
17 °C 10 km+ - 130°   130° 4 kt METAR EHGG 201025Z AUTO 13004KT 060V180 9999 NSC 17/10 Q1018 NOSIG
11:55
V
17 °C 10 km+ - 160°   160° 4 kt METAR EHGG 200955Z AUTO 16004KT 060V220 9999 FEW022 17/11 Q1019 NOSIG
11:25
V
16 °C 10 km+ - 130°   130° 6 kt METAR EHGG 200925Z AUTO 13006KT 080V180 9999 NSC 16/10 Q1020 NOSIG
10:55
V
16 °C 10 km+ - 180°   180° 5 kt METAR EHGG 200855Z AUTO 18005KT 130V230 9999 NSC 16/11 Q1020 NOSIG
10:25
M
15 °C 10 km+ 2.100 ft 170°   170° 6 kt METAR EHGG 200825Z AUTO 17006KT 130V210 9999 SCT018 BKN021 15/11 Q1020 NOSIG
09:55
M
15 °C 10 km+ 1.600 ft 160°   160° 6 kt METAR EHGG 200755Z AUTO 16006KT 110V200 9999 BKN016 BKN024 15/11 Q1021 NOSIG
09:25
M
14 °C 10 km+ 1.500 ft 140°   140° 3 kt METAR EHGG 200725Z AUTO 14003KT 090V190 9999 SCT013/// BKN015/// 14/11 Q1021 NOSIG
08:55
V
14 °C 10 km+ - Var   Var 2 kt METAR EHGG 200655Z AUTO VRB02KT 9999 FEW009 14/11 Q1021 NOSIG
08:25
V
13 °C 10 km+ - Var   Var 1 kt METAR EHGG 200625Z AUTO VRB01KT 9999 NSC 13/11 Q1021 BECMG CAVOK
07:55
V
12 °C 9 km - Var   Var 2 kt METAR EHGG 200555Z AUTO VRB02KT 9000 NSC 12/11 Q1021 BECMG CAVOK
07:25
I
11 °C 2,8 km - Var   Var 1 kt METAR EHGG 200525Z AUTO VRB01KT 2800 BR FEW000 11/11 Q1021 BECMG CAVOK
06:55
L
10 °C 400 m - 210°   210° 4 kt METAR EHGG 200455Z AUTO 21004KT 0400 R23/0600D FG OVC000 10/10 Q1021 BECMG CAVOK
06:25
I
8 °C 4 km - 210°   210° 3 kt METAR EHGG 200425Z AUTO 21003KT 4000 BR NSC 08/08 Q1021 BECMG CAVOK
05:55
L
8 °C 600 m - 200°   200° 3 kt METAR EHGG 200355Z AUTO 20003KT 0600 R23/0750D FG NSC 08/08 Q1021
05:25
I
8 °C 4,3 km - 260°   260° 2 kt METAR EHGG 200325Z AUTO 26002KT 4300 R23/1300D BR FEW000 08/08 Q1021
04:55
L
9 °C 500 m - 260°   260° 1 kt METAR EHGG 200255Z AUTO 26001KT 0500 R23/0700D FG NSC 09/08 Q1021
04:25
M
10 °C 10 km+ 1.000 ft 250°   250° 4 kt METAR EHGG 200225Z AUTO 25004KT 9999 SCT009 OVC010 10/10 Q1021
03:55
V
10 °C 10 km+ - 260°   260° 3 kt METAR EHGG 200155Z AUTO 26003KT 9999 FEW009 10/09 Q1021
03:25
V
11 °C 10 km+ - 250°   250° 4 kt METAR EHGG 200125Z AUTO 25004KT 9999 NSC 11/10 Q1021
02:55
M
12 °C 10 km+ 1.000 ft 270°   270° 5 kt METAR EHGG 200055Z AUTO 27005KT 230V320 9999 SCT009 OVC010 12/11 Q1021
02:25
M
13 °C 10 km+ 1.000 ft 310°   310° 7 kt METAR EHGG 200025Z AUTO 31007KT 270V360 9999 SCT008/// OVC010/// 13/11 Q1021
01:55
M
13 °C 10 km+ 1.000 ft 300°   300° 8 kt METAR EHGG 192355Z AUTO 30008KT 270V340 9999 FEW008 OVC010 13/11 Q1021
01:25
M
13 °C 10 km+ 1.000 ft 300°   300° 8 kt METAR EHGG 192325Z AUTO 30008KT 260V330 9999 FEW009 BKN010 OVC013 13/11 Q1021
00:55
M
13 °C 10 km+ 1.100 ft 300°   300° 7 kt METAR EHGG 192255Z AUTO 30007KT 260V350 9999 FEW009 OVC011 13/11 Q1020
00:25
I
13 °C 8 km 900 ft 270°   270° 5 kt METAR EHGG 192225Z AUTO 27005KT 240V300 8000 FEW008 BKN009 OVC011 13/12 Q1020

19 mei 2022

Tijd Code Weer Temp. Zicht Wolken Wind METAR/SPECI
23:55
V
13 °C 8 km - 270°   270° 6 kt METAR EHGG 192155Z AUTO 27006KT 240V310 8000 FEW008 SCT010 13/12 Q1020
23:25
M
14 °C 10 km+ 1.000 ft 270°   270° 10 kt METAR EHGG 192125Z AUTO 27010KT 240V300 9999 FEW009 BKN010 OVC014 14/12 Q1020
22:55
M
14 °C 10 km+ 1.000 ft 280°   280° 7 kt METAR EHGG 192055Z AUTO 28007KT 240V310 9999 BKN010 OVC012 14/12 Q1019
22:25
M
15 °C 10 km+ 1.000 ft 270°   270° 9 kt METAR EHGG 192025Z AUTO 27009KT 230V310 9999 BKN010 OVC013 15/12 Q1019 BECMG SCT018
21:55
M
15 °C 9 km 1.300 ft 260°   260° 10 kt METAR EHGG 191955Z AUTO 26010KT 230V290 9000 FEW010 BKN013 15/13 Q1019 BECMG SCT018
21:25
M
16 °C 10 km+ 1.300 ft 270°   270° 9 kt METAR EHGG 191925Z AUTO 27009KT 230V310 9999 FEW010 BKN013 OVC015 16/14 Q1018 BECMG SCT018
20:55
M
17 °C 10 km+ 1.100 ft 260°   260° 11 kt METAR EHGG 191855Z AUTO 26011KT 230V290 9999 OVC011 17/15 Q1018 TEMPO BKN009
20:25
M
18 °C 10 km+ 1.400 ft 270°   270° 11 kt METAR EHGG 191825Z AUTO 27011KT 220V310 9999 SCT009 SCT012 BKN014 18/15 Q1018 TEMPO BKN009
19:55
M
19 °C 10 km+ 2.600 ft 240°   240° 11 kt METAR EHGG 191755Z AUTO 24011KT 210V280 9999 FEW017 SCT023 BKN026 19/16 Q1017 BECMG 28012KT TEMPO BKN009
19:25
V
20 °C 10 km+ - 230°   230° 9 kt METAR EHGG 191725Z AUTO 23009KT 200V260 9999 NSC 20/17 Q1017 BECMG 28012KT TEMPO BKN009
18:55
V
20 °C 10 km+ - 210°   210° 7 kt METAR EHGG 191655Z AUTO 21007KT 170V240 9999 FEW012 20/17 Q1017 NOSIG
18:25
V
19 °C 10 km+ - 150°   150° 3 kt METAR EHGG 191625Z AUTO 15003KT 110V200 9999 FEW007 19/17 Q1016 NOSIG
17:55
V
19 °C 10 km+ - 110°   110° 4 kt METAR EHGG 191555Z AUTO 11004KT 060V150 9999 NSC 19/18 Q1016 NOSIG
17:25
V
18 °C 10 km+ - Var   Var 2 kt METAR EHGG 191525Z AUTO VRB02KT 9999 NSC 18/17 Q1016 NOSIG
16:55
V
17 °C 10 km+ - 070°   070° 3 kt METAR EHGG 191455Z AUTO 07003KT 020V130 9999 -RA SCT015CB 17/16 Q1016 NOSIG
16:25
M
17 °C 9 km 1.500 ft 070°   070° 4 kt METAR EHGG 191425Z AUTO 07004KT 9000 SHRA BKN015CB 17/16 Q1017 TEMPO 6000
15:55
M
17 °C 10 km+ 1.500 ft 270°   270° 10 kt METAR EHGG 191355Z AUTO 27010KT 240V310 9999 RA BKN015CB 17/16 Q1018 RETS TEMPO 4000
15:25
V
18 °C 10 km+ 3.400 ft 300°   300° 13 kt METAR EHGG 191325Z AUTO 30013KT 260V330 9999 SHRA FEW004 SCT015CB BKN034 BKN038 18/16 Q1017 REDZ TEMPO 24025G35KT 2500 BKN070CB
14:55
V
23 °C 10 km+ - 240°   240° 6 kt METAR EHGG 191255Z AUTO 24006KT 200V280 9999 TS FEW028CB 23/16 Q1016 TEMPO 24025G35KT 2500 +TSRA BKN070CB
14:25
V
23 °C 10 km+ - 160°   160° 7 kt METAR EHGG 191225Z AUTO 16007KT 120V210 9999 NSC 23/16 Q1016 TEMPO FM1300 24017G27KT 2500 TSRA BKN070CB
13:55
V
23 °C 10 km+ - 130°   130° 7 kt METAR EHGG 191155Z AUTO 13007KT 080V180 9999 NSC 23/16 Q1016 RETS NOSIG
13:25
V
22 °C 10 km+ - 120°   120° 9 kt METAR EHGG 191125Z AUTO 12009KT 070V170 9999 NSC 22/15 Q1015 NOSIG
12:55
V
22 °C 10 km+ - 130°   130° 7 kt METAR EHGG 191055Z AUTO 13007KT 060V180 9999 NSC 22/16 Q1016 NOSIG
12:25
V
21 °C 10 km+ - 100°   100° 6 kt METAR EHGG 191025Z AUTO 10006KT 060V140 9999 NSC 21/16 Q1017 NOSIG
11:55
V
21 °C 10 km+ - Var   Var 2 kt METAR EHGG 190955Z AUTO VRB02KT 9999 NSC 21/16 Q1018 NOSIG
11:25
V
20 °C 10 km+ - 070°   070° 5 kt METAR EHGG 190925Z AUTO 07005KT 040V100 9999 NSC 20/16 Q1017 NOSIG
10:55
V
19 °C 10 km+ - 090°   090° 7 kt METAR EHGG 190855Z AUTO 09007KT 050V120 9999 NSC 19/16 Q1017 NOSIG
10:25
V
18 °C 10 km+ - 050°   050° 6 kt METAR EHGG 190825Z AUTO 05006KT 010V100 9999 FEW015CB 18/16 Q1017 NOSIG
09:55
V
18 °C 10 km+ - 340°   340° 5 kt METAR EHGG 190755Z AUTO 34005KT 290V010 9999 NSC 18/15 Q1017 NOSIG
09:25
V
18 °C 9 km - 280°   280° 5 kt METAR EHGG 190725Z AUTO 28005KT 190V360 9000 FEW015CB 18/16 Q1017 BECMG CAVOK
08:55
V
19 °C 10 km+ - 310°   310° 8 kt METAR EHGG 190655Z AUTO 31008KT 270V360 9999 FEW015CB 19/15 Q1017 TEMPO 4000 SHRA SCT070CB
08:25
V
19 °C 10 km+ - 270°   270° 9 kt METAR EHGG 190625Z AUTO 27009KT 230V310 9999 NSC 19/15 Q1017 TEMPO 4000 SHRA SCT070CB
07:55
V
19 °C 8 km - 220°   220° 8 kt METAR EHGG 190555Z AUTO 22008KT 180V270 8000 NSC 19/15 Q1017 TEMPO FM0630 5000 SHRA SCT070CB
07:25
M
17 °C 5 km - 150°   150° 6 kt METAR EHGG 190525Z AUTO 15006KT 070V210 5000 NSC 17/15 Q1017 BECMG 9999
06:55
I
16 °C 3,9 km - 110°   110° 7 kt METAR EHGG 190455Z AUTO 11007KT 070V150 3900 BR NSC 16/14 Q1016 BECMG 7000 NSW
06:25
I
15 °C 3,4 km - 120°   120° 6 kt METAR EHGG 190425Z AUTO 12006KT 090V190 3400 BR NSC 15/14 Q1017 BECMG 7000 NSW
05:55
I
15 °C 2,7 km - 100°   100° 4 kt METAR EHGG 190355Z AUTO 10004KT 070V130 2700 BR NSC 15/14 Q1017
05:25
I
15 °C 2,5 km - 090°   090° 5 kt METAR EHGG 190325Z AUTO 09005KT 2500 BR NSC 15/14 Q1017
04:55
I
14 °C 2,5 km - 080°   080° 4 kt METAR EHGG 190255Z AUTO 08004KT 2500 BR NSC 14/14 Q1017
04:25
I
14 °C 2,9 km - 090°   090° 5 kt METAR EHGG 190225Z AUTO 09005KT 2900 BR NSC 14/14 Q1017
03:55
I
13 °C 2,6 km - 070°   070° 5 kt METAR EHGG 190155Z AUTO 07005KT 2600 BR NSC 13/13 Q1018
03:25
I
13 °C 2,4 km - 060°   060° 5 kt METAR EHGG 190125Z AUTO 06005KT 2400 BR NSC 13/13 Q1018
02:55
I
13 °C 2,7 km - 050°   050° 4 kt METAR EHGG 190055Z AUTO 05004KT 2700 BR NSC 13/12 Q1018
02:25
I
13 °C 3,6 km - 060°   060° 2 kt METAR EHGG 190025Z AUTO 06002KT 3600 BR NSC 13/13 Q1018
01:55
I
13 °C 3,6 km - 060°   060° 3 kt METAR EHGG 182355Z AUTO 06003KT 3600 BR NSC 13/13 Q1018
01:25
I
13 °C 4,7 km - Var   Var 2 kt METAR EHGG 182325Z AUTO VRB02KT 4700 BR NSC 13/12 Q1019
00:55
I
13 °C 4,4 km - 340°   340° 3 kt METAR EHGG 182255Z AUTO 34003KT 4400 BR NSC 13/12 Q1019
00:25
M
13 °C 7 km - 060°   060° 2 kt METAR EHGG 182225Z AUTO 06002KT 7000 NSC 13/12 Q1019

18 mei 2022

Tijd Code Weer Temp. Zicht Wolken Wind METAR/SPECI
23:55
V
14 °C 10 km+ - 060°   060° 3 kt METAR EHGG 182155Z AUTO 06003KT 9999 NSC 14/13 Q1019
23:25
V
14 °C 10 km+ - 080°   080° 3 kt METAR EHGG 182125Z AUTO 08003KT 9999 NSC 14/13 Q1019
22:55
V
14 °C 10 km+ - Var   Var 2 kt METAR EHGG 182055Z AUTO VRB02KT 9999 NSC 14/13 Q1020
22:25
V
14 °C 10 km+ - 350°   350° 1 kt METAR EHGG 182025Z AUTO 35001KT 9999 NSC 14/12 Q1020 NOSIG
21:55
V
15 °C 10 km+ - Var   Var 2 kt METAR EHGG 181955Z AUTO VRB02KT 9999 NSC 15/13 Q1020 NOSIG
21:25
V
17 °C 10 km+ - 340°   340° 3 kt METAR EHGG 181925Z AUTO 34003KT 290V010 9999 NSC 17/14 Q1020 NOSIG
20:55
V
18 °C 10 km+ - 330°   330° 3 kt METAR EHGG 181855Z AUTO 33003KT 9999 NSC 18/14 Q1020 NOSIG
20:25
V
18 °C 10 km+ - 310°   310° 5 kt METAR EHGG 181825Z AUTO 31005KT 9999 NSC 18/14 Q1020 NOSIG
19:55
V
19 °C 10 km+ - 310°   310° 6 kt METAR EHGG 181755Z AUTO 31006KT 280V350 9999 NSC 19/14 Q1020 NOSIG
19:25
V
19 °C 10 km+ - 320°   320° 8 kt METAR EHGG 181725Z AUTO 32008KT 280V360 9999 NSC 19/13 Q1020 NOSIG
18:55
V
20 °C 10 km+ - 320°   320° 9 kt METAR EHGG 181655Z AUTO 32009KT 280V360 9999 NSC 20/14 Q1020 NOSIG
18:25
V
20 °C 10 km+ - 320°   320° 8 kt METAR EHGG 181625Z AUTO 32008KT 280V010 9999 NSC 20/14 Q1020 NOSIG
17:55
V
21 °C 10 km+ - 310°   310° 11 kt METAR EHGG 181555Z AUTO 31011KT 270V360 9999 NSC 21/15 Q1020 NOSIG
17:25
V
22 °C 10 km+ - 320°   320° 8 kt METAR EHGG 181525Z AUTO 32008KT 9999 NSC 22/16 Q1020 NOSIG
16:55
V
23 °C 10 km+ - 320°   320° 11 kt METAR EHGG 181455Z AUTO 32011KT 280V360 9999 NSC 23/16 Q1020 NOSIG
Oudere gegevens

Installeer onze app

Gemakkelijke toegang tot al het luchtvaartweer op je mobiele telefoon en tablet.
Met veel functies die niet op de website beschikbaar zijn, zoals offline ondersteuning en een persoonlijke lijst van vliegvelden.

Met cookies volgen wij en derde partijen jouw internetgedrag binnen onze site. Als je verdergaat gaan we ervan uit dat je dit goedvindt. Meer info